Simultaneous Nadir Overpasses (SNOs) Predictions

Prediction of SNOs between METOP-B and TERRA Satellite Orbit:

Table of predicted SNOs for the next 14.0 days since TLE Epoch: 4/6/2019
Index Date (METOP-B) Time (METOP-B) Lat,Lon (METOP-B) SZA (METOP-B ) Date (TERRA) Time (TERRA) Lat,Lon (TERRA) SZA (TERRA ) Distance(km) Time Diff (sec)
1 04/07/2019 08:19:11 -81.30, -77.61 102.73 04/07/2019 08:19:55 -81.30, -77.75 102.72 2.32 44
2 04/07/2019 09:09:51 81.31, 90.18 77.32 04/07/2019 09:09:21 81.30, 90.02 77.29 2.68 30
3 04/10/2019 03:53:35 -81.30, -11.32 103.76 04/10/2019 03:54:10 -81.30, -11.19 103.73 2.32 35
4 04/10/2019 04:44:15 81.30, 156.43 76.28 04/10/2019 04:43:36 81.31, 156.55 76.28 2.07 39
5 04/12/2019 23:27:59 -81.30, 54.95 104.79 04/12/2019 23:28:26 -81.29, 54.98 104.77 0.89 27
6 04/13/2019 00:18:39 81.30,-137.33 75.25 04/13/2019 00:17:52 81.29,-137.30 75.23 0.92 47
7 04/15/2019 19:02:21 -81.30, 121.60 105.75 04/15/2019 19:02:40 -81.30, 121.54 105.75 1.07 19
8 04/15/2019 19:53:01 81.30, -70.71 74.29 04/15/2019 19:52:06 81.30, -70.77 74.26 1.10 55
9 04/18/2019 14:36:44 -81.30,-171.77 106.68 04/18/2019 14:36:55 -81.30,-171.91 106.70 2.41 11




NCC Satellite Simultaneous Nadir Overpasses (SNOs) Prediction Service
